Flag for U.S.A. Weather past 2 weeks in Clarksville, Tennessee, U.S.A.

Now
69 °F

Fog.


Feels Like: 69 °F
Forecast: 68 / 92 °F
Wind: No wind

Location: Outlaw Field

Current Time: Sep 5, 2015 at 3:50:16 AM

Latest Report: Sep 5, 2015 at 2:52 AM


Visibility: 5 mi

Pressure: 30.02 "Hg

Humidity: 90%

Dew point: 66 °F

Location of ClarksvilleLocation

Historic Weather in Clarksville — Graph

°F

Clarksville temperature yesterday

Maximum temperature yesterday: 93 °F (at 1:52 PM)
Minimum temperature yesterday: 66 °F (at 5:52 AM)
Average temperature yesterday: 79 °F

Past Weeks' High & Low Weather Summary

 TemperatureHumidityPressure
High93 °F (Sep 3, 2:52 PM)100% (Aug 21, 5:03 AM)30.15 "Hg (Aug 21, 5:03 AM)
Low51 °F (Aug 25, 5:52 AM)36% (Aug 25, 12:52 PM)29.90 "Hg (Aug 23, 4:52 PM)
Average73 °F71%30.05 "Hg
* Reported Aug 21 2:57 AM — Sep 5 2:52 AM, Clarksville, Weather by CustomWeather, © 2015

Note: Actual official high and low records may vary slightly from our data, if they occured in-between our weather recording intervals... More about our weather records

Advertising

Clarksville weather history for previous 24 hours

 ConditionsComfort  
Time TempWeatherWind HumidityBarometerVisibility
2:52 AM
Sat, Sep 5
69 °FFog.No wind90%30.02 "Hg5 mi
1:52 AM70 °FFog.No wind90%30.02 "Hg6 mi
12:52 AM71 °FClear.No wind90%30.03 "Hg7 mi
11:52 PM
Fri, Sep 4
73 °FClear.No wind84%30.03 "Hg9 mi
10:52 PM74 °FClear.No wind79%30.03 "Hg9 mi
9:52 PM75 °FClear.3 mph76%30.03 "Hg10 mi
8:52 PM78 °FClear.No wind69%30.01 "Hg10 mi
7:52 PM79 °FClear.3 mph67%29.98 "Hg10 mi
6:52 PM87 °FSunny.No wind48%29.97 "Hg10 mi
5:52 PM91 °FPassing clouds.No wind38%29.97 "Hg10 mi
4:52 PM89 °FSunny.5 mph45%29.97 "Hg10 mi
3:52 PM93 °FPartly sunny.7 mph40%29.97 "Hg10 mi
2:52 PM91 °FScattered clouds.No wind44%29.98 "Hg10 mi
1:52 PM93 °FSunny.3 mph37%30.00 "Hg10 mi
12:52 PM91 °FSunny.5 mph42%30.01 "Hg10 mi
11:52 AM90 °FSunny.6 mph43%30.03 "Hg10 mi
10:52 AM88 °FSunny.No wind52%30.03 "Hg10 mi
9:52 AM83 °FSunny.3 mph63%30.03 "Hg7 mi
8:52 AM78 °FSunny.3 mph74%30.03 "Hg5 mi
7:52 AM72 °FFog.No wind91%30.02 "Hg6 mi
6:52 AM67 °FFog.No wind97%30.01 "Hg3 mi
5:52 AM66 °FFog.3 mph96%29.98 "Hg5 mi
4:52 AM67 °FFog.No wind93%29.97 "Hg4 mi
3:52 AM69 °FClear.No wind93%29.96 "Hg9 mi
Weather by CustomWeather, © 2015

See weather overviewHow to use our weather pages